Location: ??????
(38.0677°N, 22.9870°E)
Time: 10:18:37
(UTC+00:00)

OAO 3 Rocket - Pass Details

Date: 23 May 2024
Orbit: 622 x 671 km, 35.0° (Epoch: 18 June)

Event Time Altitude Azimuth Distance (km) Brightness Sun altitude
Exits shadow 00:46:47 60° 180° (S) 762 3.2 -22.5°
Drops below altitude 10° 00:51:32 10° 105° (ESE) 2,084 6.0 -21.9°
Sets 00:53:55 0° 101° (ESE) 2,991 6.9 -21.6°
